Overview Statistics Trail Chart Weather Telemetry Raw packets
 

This is the latest recevied weather packets stored in our database for station/object K6POO-1. If no packets are shown the sender has not sent any weather packets the latest 10 day(s).

<< 6 7 8 9 10 11 12 >>
Time Temp. Humidity Pressure Rain* Wind** Luminosity Snow
1788642096 21.67° C 49% 1014.9 hPa 0 mm - 838 W/m² -
1788641795 22.22° C 47% 1015 hPa 0 mm - 846 W/m² -
1788641490 22.22° C 47% 1015 hPa 0 mm - 856 W/m² -
1788641189 22.22° C 48% 1014.9 hPa 0 mm - 864 W/m² -
1788640913 21.67° C 48% 1014.9 hPa 0 mm - 871 W/m² -
1788640585 22.22° C 49% 1014.7 hPa 0 mm - 876 W/m² -
1788640280 22.22° C 49% 1014.7 hPa 0 mm - 882 W/m² -
1788639976 22.78° C 45% 1014.8 hPa 0 mm - 886 W/m² -
1788639671 23.33° C 40% 1014.8 hPa 0 mm - 890 W/m² -
1788639367 23.33° C 40% 1014.5 hPa 0 mm - 894 W/m² -
1788639066 22.78° C 43% 1014.8 hPa 0 mm - 896 W/m² -
1788638762 23.33° C 41% 1014.8 hPa 0 mm - 896 W/m² -
1788638462 23.89° C 45% 1014.8 hPa 0 mm - 898 W/m² -
1788638156 23.33° C 47% 1014.9 hPa 0 mm - 902 W/m² -
1788637852 22.78° C 49% 1015 hPa 0 mm - 902 W/m² -
1788637551 22.78° C 48% 1014.9 hPa 0 mm - 903 W/m² -
1788637251 23.33° C 47% 1015.2 hPa 0 mm - 906 W/m² -
1788636946 23.33° C 49% 1015.1 hPa 0 mm - 906 W/m² -
1788636641 22.78° C 51% 1015.2 hPa 0 mm - 906 W/m² -
1788636336 22.22° C 51% 1015.3 hPa 0 mm - 907 W/m² -
1788636033 22.22° C 51% 1015.1 hPa 0 mm - 907 W/m² -
1788635730 22.22° C 48% 1015.4 hPa 0 mm - 908 W/m² -
1788635430 22.22° C 50% 1015.1 hPa 0 mm - 907 W/m² -
1788635142 22.78° C 52% 1015.4 hPa 0 mm - 904 W/m² -
1788634822 22.78° C 56% 1015.4 hPa 0 mm - 898 W/m² -

* Rain latest hour (hover to see other rain measurements)
** Current wind speed in m/s (hover to see current wind gust speed)